Location: Miles
(41.4492°N, 81.6087°W)
Time: 20:30:29
(UTC+00:00)

Altair - All Passes

Search period start: 11 July 2025 00:00
Search period end: 21 July 2025 00:00
Orbit: 1502 x 1682 km, 47.2° (Epoch: 10 July)

Date Brightness Start Highest point End Pass type
(mag) Time Alt. Az. Time Alt. Az. Time Alt. Az.
11 Jul - 00:22:09 10° W 00:31:20 66° NNW 00:40:30 10° ENE daylight
11 Jul - 02:27:46 10° WNW 02:36:55 67° NNE 02:46:12 10° E visible
11 Jul - 04:32:40 10° WNW 04:41:46 67° SW 04:51:07 10° SE visible
11 Jul - 06:38:49 10° W 06:45:14 21° SW 06:51:48 10° S visible
11 Jul - 19:51:45 10° SSE 19:57:54 20° SE 20:03:57 10° E daylight
11 Jul - 21:52:06 10° SW 22:01:16 65° SE 22:10:18 10° ENE daylight
11 Jul - 23:56:51 10° W 00:06:03 68° NNW 00:15:14 10° ENE daylight
12 Jul - 02:02:30 10° WNW 02:11:39 65° N 02:20:54 10° E visible
12 Jul - 04:07:26 10° WNW 04:16:35 72° SSW 04:25:57 10° SE visible
12 Jul - 06:13:19 10° W 06:20:08 23° SW 06:27:07 10° S visible
12 Jul - 19:27:12 10° SSE 19:32:49 18° SE 19:38:21 10° E daylight
12 Jul - 21:26:58 10° SW 21:36:06 61° SE 21:45:03 10° ENE daylight
12 Jul - 23:31:33 10° W 23:40:47 70° NNW 23:49:58 10° ENE daylight
13 Jul - 01:37:14 10° WNW 01:46:22 64° N 01:55:34 10° E visible
13 Jul - 03:42:13 10° WNW 03:51:24 76° SSW 04:00:46 10° SE visible
13 Jul - 05:47:52 10° WNW 05:55:02 26° SW 06:02:22 10° S visible
13 Jul - 19:02:48 10° SSE 19:07:45 16° SE 19:12:38 10° E daylight
13 Jul - 21:01:52 10° SW 21:10:56 57° SE 21:19:49 10° ENE daylight
13 Jul - 23:06:15 10° WSW 23:15:31 72° NNW 23:24:43 10° ENE daylight
14 Jul - 01:11:58 10° WNW 01:21:05 63° N 01:30:15 10° E visible
14 Jul - 03:17:00 10° WNW 03:26:11 80° SSW 03:35:34 10° SE visible
14 Jul - 05:22:28 10° WNW 05:29:56 28° SW 05:37:34 10° S visible
14 Jul - 18:38:33 10° SSE 18:42:40 14° ESE 18:46:44 10° E daylight
14 Jul - 20:36:46 10° SSW 20:45:46 53° SE 20:54:34 10° ENE daylight
14 Jul - 22:40:58 10° WSW 22:50:16 74° NNW 22:59:28 10° ENE daylight
15 Jul - 00:46:41 10° WNW 00:55:48 62° N 01:04:56 10° E daylight
15 Jul - 02:51:46 10° WNW 03:00:58 84° SSW 03:10:21 10° ESE visible
15 Jul - 04:57:06 10° WNW 05:04:50 31° SW 05:12:42 10° S visible
15 Jul - 18:14:39 10° SE 18:17:36 12° ESE 18:20:32 10° ESE daylight
15 Jul - 20:11:42 10° SSW 20:20:37 49° SE 20:29:19 10° ENE daylight
15 Jul - 22:15:41 10° WSW 22:25:01 77° NNW 22:34:13 10° ENE daylight
16 Jul - 00:21:23 10° WNW 00:30:31 62° N 00:39:38 10° E daylight
16 Jul - 02:26:33 10° WNW 02:35:46 88° SSW 02:45:07 10° ESE visible
16 Jul - 04:31:45 10° WNW 04:39:42 34° SW 04:47:50 10° SSE visible
16 Jul - 19:46:41 10° SSW 19:55:28 45° SE 20:04:03 10° ENE daylight
16 Jul - 21:50:24 10° WSW 21:59:46 80° NNW 22:08:59 10° ENE daylight
16 Jul - 23:56:06 10° WNW 00:05:13 61° N 00:14:20 10° E daylight
17 Jul - 02:01:19 10° WNW 02:10:33 88° NNE 02:19:52 10° ESE visible
17 Jul - 04:06:26 10° WNW 04:14:35 37° SW 04:22:54 10° SSE visible
17 Jul - 19:21:40 10° SSW 19:30:19 42° SE 19:38:46 10° ENE daylight
17 Jul - 21:25:07 10° WSW 21:34:31 83° NNW 21:43:46 10° ENE daylight
17 Jul - 23:30:48 10° W 23:39:56 61° N 23:49:01 10° E daylight
18 Jul - 01:36:06 10° WNW 01:45:19 84° NNE 01:54:37 10° ESE visible
18 Jul - 03:41:08 10° WNW 03:49:27 40° SW 03:57:56 10° SSE visible
18 Jul - 18:56:41 10° SSW 19:05:11 38° SE 19:13:28 10° ENE daylight
18 Jul - 20:59:51 10° WSW 21:09:18 87° NNW 21:18:32 10° ENE daylight
18 Jul - 23:05:29 10° W 23:14:39 61° N 23:23:43 10° ENE daylight
19 Jul - 01:10:51 10° WNW 01:20:05 81° NNE 01:29:22 10° ESE visible
19 Jul - 03:15:50 10° WNW 03:24:19 44° SW 03:32:57 10° SSE visible
19 Jul - 18:31:44 10° SSW 18:40:04 35° SE 18:48:10 10° ENE daylight
19 Jul - 20:34:36 10° WSW 20:44:04 89° SSE 20:53:19 10° ENE daylight
19 Jul - 22:40:10 10° W 22:49:21 61° N 22:58:27 10° ENE daylight
20 Jul - 00:45:36 10° WNW 00:54:51 78° NNE 01:04:05 10° ESE daylight
20 Jul - 02:50:34 10° WNW 02:59:11 47° SW 03:07:56 10° SSE visible
20 Jul - 04:59:59 10° WSW 05:02:07 11° WSW 05:04:17 10° SW visible
20 Jul - 18:06:49 10° S 18:14:56 32° SE 18:22:49 10° ENE daylight
20 Jul - 20:09:21 10° WSW 20:18:51 86° SSE 20:28:06 10° ENE daylight
20 Jul - 22:14:50 10° W 22:24:04 62° N 22:33:10 10° ENE daylight
